Location: Bacharowice
(49.9333°N, 19.5833°E)
Time: 01:36:19
(UTC+00:00)

Nadezhda 3 Rocket - Pass Details

Date: 11 May 2021
Orbit: 956 x 1000 km, 82.9° (Epoch: 24 June)

Event Time Altitude Azimuth Distance (km) Brightness Sun altitude
Exits shadow 22:35:20 43° 176° (S) 1,350 4.2 -21.9°
Maximum altitude 22:37:34 80° 96° (E) 997 3.9 -21.9°
Drops below altitude 10° 22:43:48 10° 12° (NNE) 2,721 7.4 -21.9°
Sets 22:46:18 0° 11° (N) 3,667 8.5 -21.9°
